Wind_Speed
6 6 6 6 6 6 7 7 7 7 7 7 7 7 8 9 10 10 10 10 9 9 10 10 10 9 9 8 8 8 8 8 8 7 7 7 6 6 5 4 4 4 3
7 7 7 6 6 6 6 7 7 7 7 7 8 8 8 9 10 9 9 9 9 9 9 10 9 9 9 8 8 8 8 7 7 7 6 6 6 5 4 4 4 4 3
7 7 7 6 6 6 6 6 7 7 7 6 7 7 8 9 9 10 10 10 9 9 9 9 8 8 8 8 8 7 7 7 7 6 6 6 6 4 4 4 4 4 3
7 7 7 7 7 7 7 7 7 7 7 7 7 7 8 8 9 9 10 10 9 9 8 8 8 8 8 8 8 7 7 6 6 6 5 5 5 5 4 4 3 3 2
8 8 8 7 7 7 8 8 8 7 7 7 7 7 8 8 9 9 10 9 9 8 8 8 7 8 8 8 7 7 7 6 5 5 5 5 4 4 4 3 3 2 1
10 9 8 8 9 9 9 9 8 7 7 7 8 8 8 9 9 9 9 9 9 8 8 7 7 7 8 8 7 7 6 5 5 4 4 4 4 3 3 3 3 3 1
11 11 9 10 10 10 10 9 8 8 8 8 8 8 9 9 9 9 9 8 7 7 7 7 7 7 8 8 7 6 6 5 4 4 3 3 3 3 3 3 3 2 2
12 11 11 10 10 10 9 8 7 8 7 8 8 8 8 9 9 9 8 8 7 6 6 7 6 7 7 7 7 6 5 4 4 4 3 3 3 3 3 3 3 2 3
12 12 12 12 11 11 10 8 7 7 7 7 8 8 9 8 8 8 9 8 7 6 6 6 7 7 7 6 5 5 5 4 4 3 3 3 3 3 3 3 3 4 4
12 12 13 12 12 11 10 8 7 7 8 8 8 8 9 8 8 8 8 7 7 6 6 5 5 5 5 4 4 4 4 3 3 3 3 3 3 3 3 4 4 4 4
12 12 12 12 12 11 11 10 10 9 9 9 9 9 9 8 8 8 7 6 5 5 5 4 4 4 3 3 3 3 2 2 2 3 3 3 3 3 4 4 5 5 5
12 12 12 12 11 12 11 11 11 11 11 10 10 10 9 8 8 7 6 6 5 4 4 4 3 3 3 2 2 2 1 2 2 3 3 4 4 4 4 5 5 6 6
12 12 12 12 11 11 11 11 12 11 11 11 11 10 9 9 8 7 6 6 5 5 4 4 3 3 2 2 2 2 2 2 2 3 4 4 4 4 4 5 5 6 6
12 12 12 12 11 11 11 11 11 11 10 10 10 9 8 8 8 7 6 5 5 5 4 3 2 2 2 1 2 2 2 3 3 3 3 3 3 4 5 5 6 6 7
12 12 12 12 11 11 10 10 11 11 10 10 9 8 8 7 7 6 6 5 5 4 4 3 2 1 1 0 0 2 3 3 3 3 3 3 3 4 5 6 7 7 6
13 12 11 11 11 10 10 10 10 9 9 8 8 7 7 6 6 6 5 5 5 4 4 4 3 2 1 1 0 1 2 3 3 3 4 5 5 6 6 6 7 7 7
12 11 11 10 10 10 9 9 9 9 8 8 7 6 6 6 6 6 5 5 5 5 4 3 3 3 2 1 1 1 1 2 2 3 4 4 5 6 6 6 7 7 7
12 11 11 9 10 10 9 8 8 8 7 7 7 6 6 6 6 6 5 5 4 4 3 2 2 2 2 2 2 2 2 3 3 3 4 4 4 5 6 7 7 7 8
12 12 11 10 10 10 9 8 7 7 6 6 6 6 6 6 6 6 6 5 5 4 4 3 3 3 3 3 3 3 3 3 4 5 5 5 5 6 7 7 8 8 9
11 11 11 11 11 10 9 8 7 7 7 7 7 6 7 6 6 6 5 6 5 5 5 5 4 4 4 4 4 4 4 4 4 5 6 6 6 7 8 9 9 10 10
10 10 9 10 10 10 10 9 8 8 7 7 7 7 6 6 6 6 6 6 6 6 6 5 5 5 5 5 5 5 4 4 5 5 6 7 7 8 8 9 10 10 11
10 9 9 9 9 9 10 9 8 8 8 8 7 7 6 6 6 6 6 6 6 7 7 6 6 5 5 5 5 5 5 5 5 6 7 7 7 7 8 9 9 10 10
9 8 8 8 8 8 9 9 9 8 8 8 8 7 7 7 7 7 6 6 6 7 7 6 6 5 5 5 5 6 6 7 7 6 7 7 7 8 9 9 10 10 11
8 7 7 7 7 7 7 8 8 8 8 8 8 7 7 7 7 7 6 6 6 6 6 6 6 6 6 6 6 6 7 7 8 7 8 8 8 9 10 10 10 11 12
7 7 7 7 6 7 7 7 7 7 8 8 7 7 7 7 6 6 6 6 6 6 6 6 7 7 7 7 7 7 8 8 9 9 9 9 9 10 10 11 11 11 12
6 7 7 6 6 6 7 7 7 7 7 7 6 6 6 7 6 6 6 7 7 6 6 7 8 8 8 8 8 8 9 9 9 10 9 10 10 10 11 11 12 11 11
Wind_Direction
81 85 86 86 91 110 114 115 118 117 117 125 132 138 136 139 142 144 146 147 148 148 149 148 148 147 145 143 141 137 134 133 134 134 137 145 144 145 142 134 133 134 130
78 88 90 88 92 108 115 120 123 124 125 126 131 135 136 139 143 145 147 150 149 149 152 151 152 150 147 148 145 138 137 135 134 133 136 144 148 145 136 130 133 128 126
80 86 89 92 94 106 117 124 118 118 122 122 131 133 132 134 136 139 141 146 146 147 150 151 152 153 152 153 149 145 144 136 136 135 137 139 142 140 134 127 129 127 128
83 85 84 94 99 106 113 115 117 114 118 119 121 128 135 139 137 138 137 142 145 146 146 149 152 155 158 158 155 151 149 142 138 137 139 142 146 143 139 138 133 126 123
84 86 87 92 106 109 112 118 118 118 120 121 124 124 131 138 142 140 140 140 143 145 146 147 152 158 161 161 159 155 152 151 151 147 147 148 152 152 149 152 157 157 143
80 87 92 94 103 106 109 116 116 117 120 121 123 127 134 138 141 142 140 139 140 141 142 148 152 162 168 163 159 155 153 156 159 159 161 161 160 166 167 174 177 182 182
83 86 91 92 94 99 104 111 115 116 115 120 125 131 136 137 140 141 138 134 133 131 136 132 136 146 158 161 154 155 160 166 167 165 166 174 173 188 191 185 195 209 220
82 84 88 92 88 90 98 104 110 111 111 118 123 128 132 137 140 137 139 134 135 131 135 127 125 136 151 155 158 162 169 176 178 176 184 198 211 217 223 224 217 234 237
82 84 87 88 88 87 94 98 100 107 109 116 123 127 128 125 130 133 135 136 141 138 135 133 135 139 145 155 168 175 180 188 190 197 209 220 222 235 248 228 235 231 233
84 86 87 86 85 83 84 88 93 105 108 113 118 122 124 121 123 129 132 141 145 146 141 141 138 138 142 150 171 182 189 202 209 223 235 240 240 247 244 241 245 236 231
82 85 85 83 82 82 82 85 89 94 100 106 112 118 119 118 116 120 127 133 142 145 143 141 136 140 145 156 175 179 193 213 224 238 245 242 246 251 249 256 253 245 244
80 83 83 82 80 82 82 81 84 86 91 96 104 109 111 115 115 112 118 124 126 132 129 130 133 139 143 159 182 193 205 218 242 241 245 246 252 251 257 264 257 250 252
81 82 83 83 83 83 82 82 83 86 90 95 100 100 102 108 108 107 109 111 110 114 119 117 118 120 135 159 186 206 225 235 251 250 260 261 260 256 261 268 261 264 262
80 81 84 83 84 82 81 84 85 86 89 93 97 101 101 103 103 103 110 110 109 104 103 108 108 114 133 154 199 221 238 254 255 265 272 275 267 272 279 275 267 262 263
78 81 84 86 84 82 82 83 86 87 89 92 95 95 97 100 98 98 98 96 96 96 91 79 84 92 94 74 254 257 268 278 271 260 266 269 261 273 281 271 271 275 278
71 76 79 82 82 81 82 82 83 85 87 92 94 96 99 96 96 92 94 92 91 87 82 71 62 56 64 57 324 274 281 282 287 290 282 276 281 284 287 289 286 286 287
70 72 77 78 79 79 77 76 79 82 85 90 92 92 91 86 89 91 89 87 89 86 83 79 73 58 53 35 359 337 320 312 308 307 299 298 290 288 289 286 286 285 287
69 69 74 76 76 77 74 75 75 78 81 84 84 82 79 79 84 85 82 83 83 84 74 63 50 40 34 27 8 358 353 349 337 323 311 311 309 306 303 298 290 286 286
65 64 67 71 75 73 70 71 70 72 75 77 77 78 81 84 85 81 74 77 78 75 59 38 31 23 20 17 11 359 352 346 340 336 331 327 321 312 305 301 292 291 292
61 61 65 67 69 69 66 67 66 71 74 74 74 77 83 87 85 79 74 69 73 73 61 50 45 38 29 21 16 4 354 347 340 336 334 326 315 308 304 299 293 292 290
60 61 64 65 65 65 67 68 70 73 71 72 74 75 82 85 82 76 71 69 63 58 50 42 44 41 32 25 24 17 6 353 344 336 329 323 316 312 309 306 299 294 291
55 59 62 64 64 65 67 68 71 70 69 71 72 75 83 83 77 70 72 66 58 50 45 40 35 34 27 20 15 12 5 354 345 336 328 326 326 324 321 317 310 301 296
51 55 58 61 63 65 68 69 68 67 67 70 74 76 82 82 74 67 63 57 52 45 39 34 29 23 15 9 3 0 359 355 350 343 335 330 332 327 324 321 316 309 305
48 50 54 60 64 65 67 69 70 69 69 72 71 69 74 75 71 66 60 52 45 36 29 25 20 10 4 358 351 348 349 347 345 343 337 333 328 325 325 322 318 312 307
46 48 54 60 66 67 68 70 70 71 72 71 70 69 69 66 65 62 54 43 32 24 17 14 12 5 358 354 350 348 346 345 343 341 337 333 329 326 323 323 321 319 313
48 47 50 57 63 67 69 69 69 70 68 63 63 61 59 57 53 43 32 26 22 16 14 15 12 5 0 357 353 347 346 345 344 342 340 335 331 325 321 318 319 321 319
Height
5865 5865 5865 5865 5866 5866 5866 5867 5868 5869 5870 5871 5871 5872 5873 5873 5874 5874 5875 5877 5877 5878 5878 5879 5880 5880 5881 5882 5882 5883 5884 5884 5884 5885 5885 5885 5886 5886 5886 5886 5886 5886 5886
5867 5866 5867 5867 5867 5867 5868 5868 5869 5870 5871 5871 5872 5873 5874 5874 5875 5875 5876 5877 5878 5878 5879 5880 5880 5881 5882 5882 5883 5884 5885 5885 5885 5885 5886 5886 5886 5887 5887 5887 5887 5886 5886
5868 5868 5868 5868 5868 5868 5869 5869 5870 5871 5872 5872 5873 5874 5874 5875 5876 5876 5877 5878 5879 5879 5879 5880 5881 5881 5882 5883 5884 5885 5885 5886 5886 5886 5886 5886 5887 5887 5887 5887 5887 5887 5887
5870 5870 5869 5869 5869 5870 5870 5871 5871 5872 5873 5873 5874 5874 5875 5875 5876 5877 5878 5878 5879 5879 5880 5880 5881 5882 5882 5883 5884 5885 5886 5886 5886 5886 5887 5887 5888 5888 5888 5888 5887 5887 5887
5871 5871 5871 5871 5870 5871 5872 5872 5872 5873 5873 5874 5874 5875 5875 5876 5877 5878 5878 5879 5879 5880 5880 5881 5881 5881 5882 5884 5885 5886 5886 5887 5887 5887 5887 5888 5888 5888 5888 5888 5888 5888 5888
5873 5873 5873 5872 5872 5873 5873 5873 5874 5874 5874 5875 5875 5876 5876 5877 5878 5878 5879 5880 5880 5881 5881 5881 5881 5880 5882 5884 5885 5886 5886 5887 5887 5887 5887 5888 5888 5888 5888 5888 5888 5888 5888
5874 5874 5874 5874 5874 5874 5874 5874 5875 5875 5875 5876 5876 5877 5877 5878 5879 5880 5880 5881 5881 5881 5882 5881 5880 5879 5880 5883 5885 5886 5887 5887 5887 5887 5888 5888 5888 5888 5888 5888 5887 5888 5887
5876 5876 5876 5876 5876 5876 5876 5876 5876 5876 5876 5876 5877 5878 5878 5879 5880 5880 5881 5881 5882 5882 5883 5882 5881 5881 5882 5884 5885 5886 5887 5887 5887 5887 5887 5888 5888 5888 5888 5887 5887 5887 5887
5879 5878 5878 5878 5878 5878 5878 5877 5877 5877 5876 5877 5877 5878 5879 5880 5880 5881 5882 5882 5883 5883 5884 5883 5883 5883 5884 5885 5886 5886 5887 5887 5887 5888 5887 5887 5887 5887 5887 5887 5886 5886 5886
5881 5880 5880 5880 5880 5880 5879 5879 5878 5878 5877 5877 5877 5879 5880 5881 5881 5882 5883 5883 5884 5884 5885 5885 5884 5885 5885 5886 5886 5886 5887 5887 5887 5887 5887 5887 5887 5887 5886 5886 5886 5885 5885
5883 5882 5882 5882 5882 5881 5881 5881 5880 5879 5878 5878 5878 5879 5881 5882 5883 5883 5884 5884 5885 5885 5885 5885 5886 5886 5886 5886 5886 5887 5887 5887 5886 5886 5886 5886 5886 5886 5886 5885 5885 5884 5885
5885 5884 5884 5884 5884 5883 5883 5883 5882 5881 5880 5880 5880 5881 5882 5883 5884 5884 5885 5885 5885 5886 5886 5886 5886 5886 5887 5887 5887 5887 5887 5887 5886 5886 5886 5885 5885 5885 5885 5884 5884 5884 5883
5887 5886 5886 5886 5886 5885 5885 5885 5885 5884 5884 5883 5883 5884 5884 5884 5885 5885 5886 5886 5886 5887 5887 5887 5887 5887 5887 5887 5887 5886 5886 5886 5886 5885 5885 5885 5884 5884 5883 5883 5883 5882 5882
5889 5889 5888 5888 5888 5887 5887 5887 5887 5886 5886 5886 5886 5886 5887 5886 5887 5887 5887 5887 5887 5887 5887 5887 5887 5887 5887 5887 5887 5886 5886 5886 5885 5884 5884 5883 5883 5882 5882 5882 5881 5881 5880
5891 5890 5890 5890 5890 5890 5889 5889 5888 5888 5888 5888 5888 5888 5888 5888 5888 5888 5888 5888 5888 5888 5888 5888 5887 5887 5887 5887 5886 5886 5885 5885 5884 5884 5884 5883 5882 5882 5881 5881 5880 5879 5879
5893 5892 5892 5892 5892 5891 5891 5891 5891 5890 5890 5890 5890 5890 5890 5890 5889 5889 5889 5889 5889 5888 5888 5888 5888 5887 5887 5887 5886 5886 5885 5884 5884 5884 5883 5882 5881 5881 5880 5879 5878 5878 5877
5895 5894 5894 5894 5893 5893 5892 5892 5892 5892 5891 5891 5891 5891 5891 5891 5890 5890 5890 5890 5889 5889 5889 5889 5888 5888 5887 5887 5886 5886 5885 5884 5884 5883 5882 5881 5880 5879 5879 5878 5877 5876 5875
5897 5896 5896 5895 5895 5894 5894 5894 5893 5893 5893 5892 5892 5892 5892 5891 5891 5891 5891 5890 5890 5890 5889 5889 5888 5888 5887 5887 5886 5886 5885 5884 5883 5882 5881 5880 5879 5878 5877 5876 5875 5874 5874
5899 5898 5897 5897 5896 5896 5896 5895 5895 5894 5894 5893 5893 5893 5893 5892 5892 5892 5891 5891 5891 5890 5889 5889 5888 5888 5887 5886 5886 5885 5885 5884 5883 5881 5880 5879 5878 5877 5876 5875 5874 5873 5872
5901 5900 5899 5899 5898 5897 5897 5896 5895 5895 5895 5894 5894 5894 5893 5893 5893 5893 5892 5892 5891 5890 5890 5889 5889 5888 5887 5886 5886 5885 5884 5883 5882 5881 5879 5878 5877 5876 5875 5873 5872 5871 5869
5903 5902 5901 5900 5899 5899 5898 5897 5897 5896 5896 5896 5895 5895 5894 5894 5894 5893 5893 5892 5892 5891 5890 5890 5889 5888 5887 5886 5886 5885 5884 5883 5881 5880 5879 5877 5876 5875 5873 5871 5870 5868 5867
5904 5903 5903 5902 5901 5900 5899 5898 5898 5898 5897 5897 5896 5895 5895 5895 5894 5894 5893 5893 5892 5892 5891 5890 5889 5888 5887 5887 5886 5884 5883 5883 5881 5879 5878 5876 5875 5873 5871 5870 5868 5866 5865
5906 5905 5904 5903 5902 5901 5900 5900 5899 5899 5898 5898 5897 5897 5896 5895 5895 5894 5894 5893 5893 5892 5891 5890 5889 5888 5887 5886 5885 5884 5883 5881 5880 5878 5876 5875 5873 5871 5869 5867 5865 5864 5862
5907 5906 5905 5904 5903 5902 5902 5901 5901 5900 5900 5899 5898 5898 5897 5896 5896 5895 5894 5894 5893 5892 5891 5890 5889 5888 5887 5885 5884 5883 5882 5880 5879 5877 5875 5873 5871 5869 5867 5865 5863 5861 5860
5907 5906 5906 5905 5904 5903 5903 5902 5902 5901 5901 5900 5899 5898 5898 5897 5896 5895 5895 5894 5893 5892 5891 5889 5888 5887 5886 5884 5883 5881 5880 5879 5877 5876 5874 5872 5870 5868 5865 5863 5861 5859 5857
5909 5907 5907 5906 5905 5904 5904 5903 5902 5902 5901 5900 5900 5899 5898 5897 5897 5896 5895 5894 5892 5891 5890 5889 5888 5886 5885 5883 5882 5880 5879 5877 5875 5874 5872 5870 5868 5866 5864 5862 5859 5857 5855